Tracking 22124 objects as of 23-Jan-2021
HD Live streaming from Space Station
objects crossing your sky now

SL-14 DEB

Track SL-14 DEB now!
10-day predictions


NORAD ID: 19136
Int'l Code: 1978-100J
Perigee: 973.0 km
Apogee: 1,633.4 km
Inclination: 82.4 °
Period: 111.5 minutes
Semi major axis: 7674 km
RCS: 0.0158 m2 (small)
Launch date: October 26, 1978
Source: Commonwealth of Independent States (former USSR) (CIS)
Launch site: PLESETSK MISSILE AND SPACE COMPLEX (PKMTR)

Note: This is SATELLITE DEBRIS
aabbcc
Your satellite tracking list
Your tracking list is empty




NASA's NSSDC Master Catalog

Two Line Element Set (TLE):
1 19136U 78100J   21022.93654913 -.00002401  00000-0 -60053-2 0  9998
2 19136  82.4168  92.9338 0430256 143.1583  28.9528 12.91374669953717
Source of the keplerian elements: AFSPC